| time (UTC) | temp F | wind direction | speed MPH | gust MPH | rain 1hr in | rain 24hr in | rain mn in | humidity % | barometer mb |
| 20260902073122 | 66 | 71 | 2.0 | 7.0 | 0.00 | 0.13 | 0.00 | 99 | 1016.1 |
| 20260902072122 | 66 | 92 | 2.0 | 4.0 | 0.00 | 0.13 | 0.00 | 99 | 1016.2 |
| 20260902071121 | 66 | 108 | 2.0 | 3.0 | 0.00 | 0.13 | 0.00 | 99 | 1016.5 |
| 20260902070125 | 66 | 100 | 2.0 | 4.0 | 0.00 | 0.16 | 0.00 | 99 | 1016.5 |
| 20260902065121 | 66 | 89 | 2.0 | 5.0 | 0.00 | 0.18 | 0.00 | 99 | 1016.5 |
| 20260902064122 | 66 | 100 | 3.0 | 6.0 | 0.00 | 0.20 | 0.00 | 99 | 1016.4 |
| 20260902063143 | 66 | 63 | 2.0 | 5.0 | 0.00 | 0.20 | 0.00 | 99 | 1016.6 |
| 20260902062122 | 66 | 14 | 2.0 | 3.0 | 0.00 | 0.20 | 0.00 | 99 | 1016.5 |
| 20260902061122 | 66 | 101 | 3.0 | 6.0 | 0.00 | 0.20 | 0.00 | 99 | 1016.6 |
| 20260902060121 | 66 | 100 | 3.0 | 5.0 | 0.00 | 0.20 | 0.00 | 99 | 1016.6 |
| 20260902055121 | 66 | 82 | 2.0 | 4.0 | 0.00 | 0.21 | 0.00 | 99 | 1016.7 |
| 20260902054121 | 67 | 86 | 2.0 | 4.0 | 0.00 | 0.27 | 0.00 | 99 | 1016.8 |
| 20260902053141 | 67 | 71 | 3.0 | 6.0 | 0.00 | 0.27 | 0.00 | 99 | 1017.0 |
| 20260902052122 | 67 | 80 | 3.0 | 5.0 | 0.00 | 0.31 | 0.00 | 99 | 1017.0 |
| 20260902051122 | 67 | 24 | 3.0 | 5.0 | 0.00 | 0.33 | 0.00 | 99 | 1016.7 |
| 20260902050121 | 67 | 55 | 3.0 | 5.0 | 0.00 | 0.33 | 0.00 | 99 | 1016.7 |
| 20260902045121 | 67 | 60 | 3.0 | 5.0 | 0.00 | 0.33 | 0.00 | 99 | 1016.4 |
| 20260902044121 | 67 | 69 | 2.0 | 5.0 | 0.00 | 0.33 | 0.00 | 99 | 1016.5 |
| 20260902043121 | 67 | 82 | 2.0 | 4.0 | 0.00 | 0.33 | 0.00 | 99 | 1016.6 |
| 20260902042121 | 67 | 106 | 4.0 | 7.0 | 0.00 | 0.33 | 0.00 | 99 | 1016.2 |
| 20260902041143 | 67 | 100 | 4.0 | 10.0 | 0.00 | 0.33 | 0.00 | 99 | 1015.9 |
| 20260902040121 | 67 | 100 | 5.0 | 9.0 | 0.00 | 0.33 | 0.00 | 99 | 1015.9 |
| 20260902035123 | 67 | 94 | 4.0 | 7.0 | 0.00 | 0.33 | 0.33 | 99 | 1015.8 |
| 20260902034121 | 68 | 119 | 3.0 | 5.0 | 0.00 | 0.33 | 0.33 | 99 | 1015.6 |
| 20260902033121 | 68 | 115 | 3.0 | 7.0 | 0.00 | 0.33 | 0.33 | 99 | 1015.6 |
| 20260902032142 | 68 | 101 | 3.0 | 6.0 | 0.00 | 0.33 | 0.33 | 99 | 1015.8 |
| 20260902031126 | 68 | 80 | 4.0 | 6.0 | 0.00 | 0.33 | 0.33 | 99 | 1015.7 |
| 20260902030121 | 68 | 105 | 3.0 | 4.0 | 0.00 | 0.33 | 0.33 | 99 | 1015.7 |
| 20260902025142 | 68 | 82 | 3.0 | 5.0 | 0.00 | 0.33 | 0.33 | 99 | 1015.5 |
| 20260902024121 | 68 | 44 | 3.0 | 7.0 | 0.00 | 0.33 | 0.33 | 99 | 1015.2 |
| 20260902023142 | 68 | 86 | 4.0 | 7.0 | 0.00 | 0.33 | 0.33 | 99 | 1015.1 |
| 20260902022124 | 68 | 79 | 4.0 | 7.0 | 0.00 | 0.33 | 0.33 | 99 | 1014.9 |
| 20260902021122 | 69 | 83 | 2.0 | 9.0 | 0.00 | 0.33 | 0.33 | 99 | 1014.8 |
| 20260902020122 | 69 | 76 | 5.0 | 8.0 | 0.00 | 0.33 | 0.33 | 99 | 1014.8 |
| 20260902015122 | 69 | 100 | 5.0 | 8.0 | 0.00 | 0.33 | 0.33 | 99 | 1014.4 |
| 20260902014126 | 69 | 99 | 5.0 | 9.0 | 0.00 | 0.33 | 0.33 | 99 | 1014.2 |
| 20260902013122 | 69 | 81 | 5.0 | 7.0 | 0.00 | 0.33 | 0.33 | 99 | 1014.1 |
| 20260902012122 | 70 | 88 | 4.0 | 9.0 | 0.00 | 0.33 | 0.33 | 99 | 1013.9 |
| 20260902011122 | 71 | 86 | 4.0 | 6.0 | 0.00 | 0.33 | 0.33 | 99 | 1013.5 |
| 20260902010143 | 71 | 62 | 3.0 | 8.0 | 0.00 | 0.33 | 0.33 | 99 | 1013.5 |
| 20260902002142 | 76 | 113 | 0.0 | 0.0 | 0.00 | 0.33 | 0.33 | 99 | 1013.1 |
| 20260902001121 | 76 | 113 | 0.0 | 0.0 | 0.00 | 0.33 | 0.33 | 99 | 1013.1 |
| 20260902000121 | 76 | 113 | 0.0 | 0.0 | 0.00 | 0.33 | 0.33 | 99 | 1013.1 |
| 20260901235121 | 76 | 148 | 1.0 | 4.0 | 0.00 | 0.33 | 0.33 | 99 | 1013.0 |
| 20260901234121 | 76 | 11 | 1.0 | 4.0 | 0.00 | 0.33 | 0.33 | 99 | 1012.8 |
| 20260901233122 | 77 | 138 | 2.0 | 4.0 | 0.00 | 0.33 | 0.33 | 99 | 1013.1 |
| 20260901232122 | 77 | 126 | 0.0 | 3.0 | 0.00 | 0.33 | 0.33 | 99 | 1012.9 |
| 20260901231142 | 77 | 101 | 2.0 | 4.0 | 0.00 | 0.33 | 0.33 | 99 | 1012.7 |
| 20260901230121 | 78 | 90 | 0.0 | 2.0 | 0.00 | 0.33 | 0.33 | 98 | 1012.7 |
| 20260901225126 | 78 | 113 | 0.0 | 3.0 | 0.00 | 0.33 | 0.33 | 98 | 1012.4 |
| 20260901224121 | 78 | 93 | 1.0 | 3.0 | 0.00 | 0.33 | 0.33 | 98 | 1012.2 |
| 20260901223121 | 79 | 115 | 1.0 | 3.0 | 0.00 | 0.33 | 0.33 | 97 | 1012.4 |
| 20260901222122 | 79 | 114 | 1.0 | 4.0 | 0.00 | 0.33 | 0.33 | 96 | 1012.2 |
| 20260901221121 | 81 | 68 | 0.0 | 5.0 | 0.00 | 0.33 | 0.33 | 92 | 1012.2 |
| 20260901220122 | 81 | 74 | 0.0 | 3.0 | 0.00 | 0.33 | 0.33 | 92 | 1012.2 |
| 20260901215121 | 81 | 120 | 1.0 | 5.0 | 0.00 | 0.33 | 0.33 | 92 | 1012.2 |
| 20260901214121 | 80 | 100 | 2.0 | 5.0 | 0.00 | 0.33 | 0.33 | 93 | 1012.2 |
| 20260901213143 | 80 | 101 | 2.0 | 5.0 | 0.00 | 0.33 | 0.33 | 93 | 1012.2 |
| 20260901212122 | 81 | 113 | 0.0 | 0.0 | 0.00 | 0.33 | 0.33 | 93 | 1012.4 |
| 20260901211122 | 81 | 103 | 2.0 | 5.0 | 0.00 | 0.33 | 0.33 | 93 | 1012.2 |
| 20260901210122 | 80 | 103 | 1.0 | 4.0 | 0.00 | 0.33 | 0.33 | 93 | 1012.2 |
| 20260901205127 | 82 | 137 | 1.0 | 3.0 | 0.00 | 0.33 | 0.33 | 91 | 1012.4 |
| 20260901204122 | 81 | 130 | 1.0 | 3.0 | 0.00 | 0.33 | 0.33 | 93 | 1012.4 |
| 20260901203122 | 81 | 124 | 1.0 | 4.0 | 0.00 | 0.33 | 0.33 | 93 | 1012.2 |
| 20260901202122 | 83 | 105 | 1.0 | 4.0 | 0.00 | 0.33 | 0.33 | 91 | 1012.2 |
| 20260901201122 | 83 | 254 | 1.0 | 3.0 | 0.00 | 0.33 | 0.33 | 91 | 1012.1 |
| 20260901200125 | 82 | 167 | 2.0 | 3.0 | 0.00 | 0.33 | 0.33 | 90 | 1012.1 |
| 20260901195122 | 83 | 140 | 3.0 | 5.0 | 0.00 | 0.33 | 0.33 | 91 | 1012.1 |
| 20260901194143 | 82 | 93 | 2.0 | 4.0 | 0.00 | 0.33 | 0.33 | 91 | 1012.4 |
| 20260901193122 | 81 | 112 | 2.0 | 4.0 | 0.00 | 0.33 | 0.33 | 94 | 1012.4 |
| 20260901192122 | 80 | 90 | 1.0 | 3.0 | 0.00 | 0.33 | 0.33 | 96 | 1012.5 |
| 20260901191122 | 80 | 113 | 0.0 | 2.0 | 0.00 | 0.33 | 0.33 | 97 | 1012.5 |
| 20260901190122 | 80 | 134 | 1.0 | 3.0 | 0.00 | 0.33 | 0.33 | 94 | 1012.5 |
| 20260901185148 | 80 | 127 | 2.0 | 4.0 | 0.00 | 0.33 | 0.33 | 97 | 1012.5 |
| 20260901184122 | 79 | 240 | 2.0 | 5.0 | 0.00 | 0.33 | 0.33 | 99 | 1012.5 |
| 20260901183122 | 78 | 174 | 2.0 | 4.0 | 0.01 | 0.33 | 0.33 | 99 | 1012.6 |
| 20260901182126 | 77 | 156 | 2.0 | 3.0 | 0.01 | 0.33 | 0.33 | 99 | 1012.7 |
| 20260901181123 | 77 | 142 | 2.0 | 4.0 | 0.01 | 0.33 | 0.33 | 99 | 1012.7 |
| 20260901180123 | 76 | 229 | 2.0 | 4.0 | 0.01 | 0.33 | 0.33 | 99 | 1012.7 |
| 20260901175125 | 75 | 167 | 3.0 | 6.0 | 0.01 | 0.33 | 0.33 | 99 | 1012.2 |
| 20260901174123 | 75 | 123 | 2.0 | 3.0 | 0.01 | 0.33 | 0.33 | 99 | 1012.2 |
| 20260901172142 | 75 | 192 | 1.0 | 4.0 | 0.00 | 0.32 | 0.32 | 99 | 1013.1 |
| 20260901171121 | 76 | 126 | 1.0 | 3.0 | 0.00 | 0.32 | 0.32 | 99 | 1013.2 |
| 20260901170122 | 76 | 188 | 2.0 | 3.0 | 0.00 | 0.32 | 0.32 | 99 | 1013.2 |
| 20260901165122 | 75 | 107 | 1.0 | 3.0 | 0.01 | 0.32 | 0.32 | 99 | 1013.2 |
| 20260901164123 | 75 | 99 | 2.0 | 5.0 | 0.03 | 0.32 | 0.32 | 99 | 1012.9 |
| 20260901163144 | 75 | 236 | 2.0 | 4.0 | 0.04 | 0.32 | 0.32 | 99 | 1013.2 |
| 20260901162122 | 76 | 229 | 2.0 | 4.0 | 0.05 | 0.32 | 0.32 | 99 | 1013.4 |
| 20260901161145 | 76 | 203 | 0.0 | 0.0 | 0.06 | 0.32 | 0.32 | 99 | 1014.0 |
| 20260901160124 | 75 | 180 | 0.0 | 0.0 | 0.06 | 0.32 | 0.32 | 99 | 1014.0 |
| 20260901155122 | 75 | 203 | 0.0 | 0.0 | 0.05 | 0.31 | 0.31 | 99 | 1014.4 |
| 20260901154121 | 75 | 248 | 0.0 | 0.0 | 0.05 | 0.29 | 0.29 | 99 | 1014.4 |
| 20260901153121 | 76 | 158 | 0.0 | 0.0 | 0.04 | 0.28 | 0.28 | 99 | 1014.2 |
| 20260901152121 | 76 | 113 | 0.0 | 0.0 | 0.03 | 0.27 | 0.27 | 99 | 1014.2 |
| 20260901151121 | 75 | 158 | 0.0 | 0.0 | 0.02 | 0.26 | 0.26 | 99 | 1014.4 |
| 20260901150124 | 75 | 90 | 0.0 | 0.0 | 0.02 | 0.26 | 0.26 | 99 | 1014.4 |
| 20260901145124 | 77 | 113 | 0.0 | 0.0 | 0.02 | 0.26 | 0.26 | 99 | 1014.6 |
| 20260901144142 | 77 | 113 | 0.0 | 0.0 | 0.00 | 0.24 | 0.24 | 99 | 1014.2 |
| 20260901143124 | 76 | 225 | 0.0 | 0.0 | 0.00 | 0.24 | 0.24 | 99 | 1014.1 |
| 20260901142121 | 76 | 113 | 0.0 | 0.0 | 0.00 | 0.24 | 0.24 | 99 | 1014.0 |
| 20260901141122 | 76 | 225 | 0.0 | 0.0 | 0.00 | 0.24 | 0.24 | 99 | 1014.1 |
| 20260901140121 | 76 | 113 | 0.0 | 0.0 | 0.00 | 0.24 | 0.24 | 99 | 1014.1 |
| 20260901135121 | 75 | 270 | 0.0 | 0.0 | 0.00 | 0.24 | 0.24 | 99 | 1014.2 |
| 20260901134121 | 75 | 135 | 0.0 | 0.0 | 0.00 | 0.24 | 0.24 | 99 | 1014.0 |
| 20260901133145 | 75 | 225 | 0.0 | 0.0 | 0.00 | 0.24 | 0.24 | 99 | 1014.1 |
| 20260901132130 | 75 | 270 | 0.0 | 0.0 | 0.00 | 0.24 | 0.24 | 99 | 1014.0 |
| 20260901132122 | 75 | 248 | 0.0 | 0.0 | 0.00 | 0.24 | 0.24 | 99 | 1014.0 |
| 20260901131145 | 74 | 113 | 0.0 | 0.0 | 0.00 | 0.24 | 0.24 | 99 | 1014.0 |
| 20260901130123 | 74 | 158 | 0.0 | 0.0 | 0.00 | 0.24 | 0.24 | 99 | 1014.0 |
| 20260901125124 | 74 | 104 | 1.0 | 4.0 | 0.00 | 0.24 | 0.24 | 99 | 1013.9 |
| 20260901124142 | 74 | 105 | 2.0 | 3.0 | 0.00 | 0.24 | 0.24 | 99 | 1013.9 |
| 20260901123122 | 73 | 102 | 1.0 | 3.0 | 0.00 | 0.24 | 0.24 | 99 | 1014.0 |
| 20260901122126 | 72 | 151 | 1.0 | 2.0 | 0.00 | 0.24 | 0.24 | 99 | 1014.1 |
| 20260901121122 | 72 | 107 | 1.0 | 3.0 | 0.00 | 0.24 | 0.24 | 99 | 1014.4 |
| 20260901120122 | 72 | 101 | 0.0 | 2.0 | 0.00 | 0.24 | 0.24 | 99 | 1014.4 |
| 20260901115122 | 71 | 202 | 0.0 | 2.0 | 0.00 | 0.24 | 0.24 | 99 | 1014.2 |
| 20260901114121 | 71 | 114 | 1.0 | 2.0 | 0.00 | 0.24 | 0.24 | 99 | 1014.4 |
| 20260901113121 | 71 | 102 | 1.0 | 2.0 | 0.00 | 0.24 | 0.24 | 99 | 1014.2 |
| 20260901112121 | 71 | 110 | 1.0 | 3.0 | 0.00 | 0.24 | 0.24 | 99 | 1014.5 |
| 20260901111121 | 70 | 110 | 2.0 | 3.0 | 0.00 | 0.24 | 0.24 | 99 | 1014.6 |
| 20260901110123 | 70 | 86 | 0.0 | 2.0 | 0.00 | 0.24 | 0.24 | 99 | 1014.6 |
| 20260901105126 | 70 | 43 | 1.0 | 2.0 | 0.00 | 0.24 | 0.24 | 99 | 1014.5 |
| 20260901104121 | 70 | 99 | 1.0 | 2.0 | 0.00 | 0.24 | 0.24 | 99 | 1014.2 |
| 20260901103121 | 70 | 124 | 1.0 | 2.0 | 0.00 | 0.24 | 0.24 | 99 | 1014.1 |
| 20260901102123 | 70 | 113 | 0.0 | 0.0 | 0.00 | 0.24 | 0.24 | 99 | 1014.2 |
| 20260901101121 | 70 | 180 | 0.0 | 0.0 | 0.00 | 0.24 | 0.24 | 99 | 1014.1 |
| 20260901100122 | 70 | 225 | 0.0 | 0.0 | 0.00 | 0.24 | 0.24 | 99 | 1014.1 |
| 20260901095147 | 70 | 92 | 0.0 | 2.0 | 0.00 | 0.24 | 0.24 | 99 | 1013.9 |
| 20260901094121 | 70 | 90 | 1.0 | 3.0 | 0.00 | 0.24 | 0.24 | 99 | 1014.1 |
| 20260901093125 | 70 | 100 | 0.0 | 2.0 | 0.00 | 0.24 | 0.24 | 99 | 1014.2 |
| 20260901092121 | 70 | 118 | 0.0 | 3.0 | 0.01 | 0.24 | 0.24 | 99 | 1014.4 |
| 20260901091122 | 70 | 270 | 0.0 | 0.0 | 0.03 | 0.24 | 0.24 | 99 | 1014.4 |
| 20260901090145 | 70 | 135 | 0.0 | 0.0 | 0.03 | 0.24 | 0.24 | 99 | 1014.4 |
| 20260901085122 | 70 | 113 | 0.0 | 0.0 | 0.04 | 0.24 | 0.24 | 99 | 1014.4 |
| 20260901084122 | 70 | 68 | 0.0 | 0.0 | 0.04 | 0.24 | 0.24 | 99 | 1014.4 |
| 20260901083122 | 70 | 135 | 0.0 | 0.0 | 0.04 | 0.24 | 0.24 | 99 | 1014.6 |
| 20260901082145 | 70 | 113 | 0.0 | 0.0 | 0.03 | 0.23 | 0.23 | 99 | 1014.7 |
| 20260901081123 | 70 | 45 | 0.0 | 0.0 | 0.01 | 0.21 | 0.21 | 99 | 1014.8 |
| 20260901080144 | 70 | 113 | 0.0 | 0.0 | 0.04 | 0.21 | 0.21 | 99 | 1014.8 |
| 20260901075122 | 70 | 90 | 0.0 | 1.0 | 0.05 | 0.20 | 0.20 | 99 | 1014.8 |
| 20260901074126 | 70 | 98 | 1.0 | 2.0 | 0.07 | 0.20 | 0.20 | 99 | 1014.6 |